Location: Torrefarrera
(41.6732°N, 0.6067°E)
Time: 13:31:27
(UTC+00:00)

Daily predictions for brighter satellites

Satellite Brightness Start Highest point End
(mag) Time Altitude Azimuth Time Altitude Azimuth Time Altitude Azimuth
SL-16 R/B 3.5 18:49:10 10° SW 18:54:36 46° WNW 19:00:03 10° NNE
STARLINK-1128 3.6 18:51:46 10° NW 18:55:56 89° SW 19:00:04 10° SE
ADEOS Rocket 3.4 18:49:35 10° N 18:55:58 71° WNW 19:01:43 10° SSW
CZ-2D R/B 4.2 18:54:34 10° S 18:58:17 52° W 19:02:01 10° NNW
NOSS 3-3 (A) 3.9 18:53:29 10° SSW 18:59:13 72° ESE 19:05:37 10° NE
NOSS 3-3 (C) 3.9 18:53:37 10° SSW 18:59:19 71° ESE 19:05:43 10° NE
CZ-2C R/B 4.1 18:56:49 10° ENE 18:59:30 14° E 19:02:11 10° ESE
Cosmos 2251 Rocket 3.6 18:55:00 10° S 19:00:17 65° ESE 19:05:37 10° NNE
Cosmos 1726 3.1 18:57:34 10° SSE 19:00:46 27° E 19:03:59 10° NNE
STARLINK-1113 3.7 18:56:46 10° NW 19:00:56 82° SW 19:05:03 10° SE
ARGOS 3.7 18:58:16 10° SE 19:03:15 40° ENE 19:08:15 10° N
STARLINK-60 4.3 19:02:21 10° S 19:04:55 21° SE 19:07:29 10° E
YAOGAN 1 3.9 19:00:51 10° S 19:04:57 44° W 19:09:07 10° NNW
STARLINK-1119 3.8 19:01:44 10° NW 19:05:52 75° SW 19:10:00 10° SE
SJ-6B 3.9 19:03:11 10° SE 19:06:46 30° ENE 19:10:22 10° N
ISS -3.8 19:03:37 10° NW 19:07:00 88° NE 19:10:16 11° SE
SL-14 R/B 4.3 19:03:28 10° NNW 19:07:23 51° W 19:11:15 10° S
BREEZE M DEB (TANK) 3.9 19:07:04 10° SSE 19:08:41 14° ESE 19:11:00 10° E
Meteor 2-10 4.4 19:04:21 10° SSE 19:09:27 45° E 19:14:46 10° NNE
STARLINK-1114 3.9 19:06:43 10° WNW 19:10:51 68° SW 19:14:56 10° SE
USA 186 2.4 19:08:32 10° SE 19:11:42 38° ENE 19:14:45 10° N
Cosmos 1626 Rocket 3.7 19:09:06 10° N 19:13:29 76° W 19:17:47 10° S
STARLINK-1130 (DARKSAT) 4.0 19:11:43 10° WNW 19:15:49 62° SW 19:19:53 10° SE
Cosmos 1603 3.6 19:11:32 10° SSW 19:17:09 78° ESE 19:22:47 10° NNE
FREGAT/IRIS 2.6 19:15:59 10° SSE 19:18:35 45° ENE 19:21:13 10° N
Ariane Rocket 3.0 19:15:18 10° SSE 19:20:22 78° ENE 19:25:26 10° N
Cosmos 1758 4.2 19:16:37 10° SSW 19:20:38 55° W 19:24:40 10° N
IRIDIUM 104 4.4 19:15:37 10° N 19:20:46 55° E 19:25:52 10° SSE
STARLINK-1084 4.1 19:16:44 10° WNW 19:20:47 56° SW 19:24:45 11° SE
Resurs 01 Rocket 3.2 19:21:42 14° E 19:23:38 18° ENE 19:26:35 10° NNE
Cosmos 1602 Rocket 3.8 19:19:43 10° N 19:24:09 76° W 19:28:31 10° S
ATLAS 2AS CENTAUR R/B 3.6 19:17:36 10° NNW 19:24:39 38° NE 19:29:59 15° ESE
MOS 1 4.3 19:19:13 10° SSE 19:24:47 65° ENE 19:30:23 10° N
HJ-1C 4.4 19:21:53 10° S 19:25:07 48° W 19:28:24 10° NNW
STARLINK-1098 4.3 19:21:45 10° WNW 19:25:46 50° SW 19:29:33 11° SSE
Meteor 1-21 Rocket 4.1 19:21:05 10° N 19:26:39 77° E 19:32:10 10° SSE
Meteor 1-16 Rocket 4.2 19:21:39 10° S 19:26:51 54° E 19:32:13 10° NNE
USA 234 3.9 19:21:13 10° ENE 19:27:01 33° SE 19:32:46 10° S
H-2A R/B 4.1 19:19:38 10° W 19:29:13 20° SW 19:32:48 10° S
Nadezhda 1 Rocket 4.4 19:23:52 10° SSE 19:29:48 42° E 19:35:44 10° NNE
IRIDIUM 114 4.3 19:24:43 10° N 19:29:56 68° E 19:35:07 10° S
GEOS 3 Rocket 4.2 19:25:00 10° SSE 19:29:59 55° WSW 19:35:07 10° NW
SL-4 R/B 1.4 19:26:43 10° SW 19:30:06 81° SE 19:33:32 10° ENE
Aureole 3 4.1 19:26:02 10° SSW 19:30:28 78° W 19:36:14 10° N
STARLINK-1123 4.5 19:26:45 10° WNW 19:30:43 46° SW 19:34:20 12° SSE
Cosmos 1726 Rocket 4.1 19:28:17 10° SSE 19:32:18 37° E 19:36:24 10° NNE
SeaSat 1 4.3 19:28:07 10° N 19:32:32 34° NW 19:36:57 10° WSW
Cosmos 1340 Rocket 4.0 19:32:48 19° ESE 19:34:06 23° E 19:37:18 10° NE
ATLAS 5 CENTAUR R/B 2.4 19:32:04 10° S 19:35:25 25° ESE 19:39:00 10° ENE
CZ-4 R/B 4.4 19:33:42 10° WSW 19:35:40 13° W 19:37:37 10° WNW
IRIDIUM 103 4.3 19:33:53 10° N 19:39:08 83° E 19:44:21 10° S
Cosmos 1328 4.3 19:37:25 10° N 19:41:13 40° ENE 19:43:15 23° SE
Cosmos 1825 Rocket 3.5 19:36:52 10° N 19:41:14 61° E 19:45:01 13° SSE
Cosmos 292 Rocket 4.4 19:40:01 10° NNW 19:44:43 56° WSW 19:49:25 10° S
SL-8 R/B 3.7 19:41:38 10° WNW 19:46:26 83° SSW 19:49:09 26° SE
Cosmos 614 Rocket 4.0 19:41:32 10° S 19:46:36 54° ESE 19:51:42 10° NNE
Cosmos 1703 3.5 19:42:47 10° N 19:46:39 49° E 19:48:40 25° SE
SPOT 3 Rocket 3.6 19:45:41 16° SSE 19:49:52 61° ENE 19:55:00 10° N
Abrixas rocket 4.1 19:48:22 10° NW 19:50:43 21° N 19:52:19 14° NE
Cosmos 1943 Rocket 3.1 19:45:42 10° NW 19:50:59 47° WSW 19:56:18 10° S
Cosmos 2369 Rocket 2.7 19:47:24 10° NNW 19:53:00 61° WSW 19:58:32 10° S
Cosmos 1758 Rocket 3.6 19:49:40 10° N 19:54:01 79° W 19:58:18 10° S
COSMOS 2455 4.0 19:49:02 10° N 19:54:06 27° NE 19:56:39 21° E
Cosmos 2074 Rocket 4.0 19:48:01 10° N 19:54:20 89° W 20:00:38 10° S
SL-24 R/B 3.7 19:51:21 10° NNE 19:55:27 72° E 19:59:10 10° S
Cosmos 1437 2.9 19:53:20 10° NNW 19:56:21 63° W 19:58:05 22° S
Cosmos 1953 3.8 19:52:40 10° SSW 19:56:23 39° WNW 20:00:09 10° N
Cosmos 921 Rocket 4.2 19:53:34 10° N 19:56:56 23° ENE 19:57:12 23° ENE
CZ-2C R/B 3.6 19:52:40 10° NNE 19:57:24 79° ESE 20:02:01 10° S
Cosmos 407 Rocket 3.5 19:52:56 10° S 19:57:59 57° ESE 20:03:00 10° NNE
Cosmos 2228 2.9 19:54:19 10° S 19:58:35 88° E 20:02:56 10° N
Cosmos 1606 Rocket 3.6 19:56:47 10° S 20:01:12 82° W 20:05:41 10° N
Cosmos 1953 Rocket 3.5 19:57:09 10° N 20:01:37 69° E 20:04:01 27° SSE
Cosmos 1908 3.1 19:57:58 10° S 20:01:47 81° E 20:05:41 10° N
Cosmos 1818 4.1 20:00:37 10° SW 20:05:59 62° NW 20:11:24 10° NNE
SL-08 RB Rocket 4.0 20:06:02 14° S 20:09:56 66° WSW 20:14:31 10° NNW
Cosmos 1610 Rocket 4.4 20:04:11 10° N 20:10:23 79° E 20:14:59 19° SSE
Cosmos 1943 4.3 20:09:56 10° SW 20:15:22 47° WNW 20:20:51 10° NNE
Meteor 1-11 4.1 20:10:41 10° N 20:16:29 78° E 20:19:34 28° SSE
CZ-2C R/B 4.2 20:12:55 10° SSW 20:17:30 38° W 20:21:59 10° NNW
Cosmos 1461 3.7 20:15:01 10° NNW 20:19:18 39° NE 20:19:51 37° ENE
APEX 4.3 20:12:47 10° NNW 20:19:18 67° ENE 20:21:10 42° SE
Cosmos 1954 Rocket 4.2 20:21:02 44° ESE 20:21:08 44° ESE 20:26:05 10° NNE
H-2A R/B 3.8 20:22:19 10° SSW 20:26:54 30° W 20:31:23 10° NW
Cosmos 1023 Rocket 4.3 20:24:37 10° SSW 20:29:48 84° ESE 20:34:59 10° NNE
Cosmos 1295 Rocket 4.4 20:24:41 10° N 20:31:02 83° E 20:34:11 32° SSE
Resurs 1-3 4.1 20:33:01 34° SSW 20:34:41 58° W 20:39:02 10° NNW
Cosmos 1656 Rocket 4.2 20:33:01 10° NNW 20:38:31 54° WSW 20:41:04 30° S
CZ-2C R/B 2.8 20:35:08 10° N 20:40:17 69° WNW 20:45:26 10° SSW
STARLINK-60 4.4 20:37:57 10° WSW 20:40:40 39° NW 20:40:40 39° NW
ISS -0.9 20:42:22 10° WSW 20:43:16 11° SW 20:43:16 11° SW
NOSS 3-4 (A) 3.8 20:36:30 10° NW 20:43:38 90° SW 20:46:22 45° SSE
NOSS 3-4 (C) 3.8 20:36:36 10° NW 20:43:44 90° ENE 20:46:27 45° SE
Cosmos 2341 Rocket 3.9 20:38:22 10° N 20:44:47 79° E 20:46:39 49° SSE
Terra 3.7 20:55:01 18° NE 20:55:01 18° NE 20:57:02 10° NNE
Cosmos 2058 Rocket 4.3 20:53:43 17° SW 20:56:47 40° WNW 21:01:04 10° N
Resurs 01 Rocket 2.4 20:59:16 43° WSW 20:59:46 45° W 21:04:00 10° NNW
Cosmos 2218 Rocket 3.9 20:56:06 10° N 21:02:17 66° E 21:02:26 66° E
USA 245 4.1 21:08:37 85° S 21:08:46 88° WSW 21:14:58 10° NNW
SL-4 R/B 4.1 21:07:13 10° WNW 21:09:22 21° NW 21:09:22 21° NW
USA 234 3.4 21:03:47 10° NE 21:10:18 72° NW 21:16:48 10° WSW
Spot 2 Rocket 3.6 21:11:43 74° WNW 21:11:43 74° WNW 21:16:34 10° NNW
Cosmos 2181 Rocket 4.0 21:12:14 57° SSW 21:13:36 80° W 21:19:50 10° N
ATLAS 2AS CENTAUR R/B 3.2 21:08:41 10° NW 21:15:54 54° WSW 21:17:26 46° SSW
ATLAS 5 CENTAUR R/B 4.5 21:09:40 10° SW 21:50:39 - ESE 21:14:55 28° S
ATLAS 5 CENTAUR R/B 3.1 21:15:59 10° WSW 21:19:48 34° NW 21:24:03 10° NNE
SL-8 Rocket 4.0 21:16:27 10° N 21:22:46 74° W 21:23:20 69° SW
Cosmos 864 Rocket 4.4 21:20:01 10° N 21:25:58 82° N 21:25:58 82° N
In-Cosmos 22 Rocket 4.5 21:26:51 10° NNW 21:32:08 68° NW 21:32:08 68° NW
Cosmos 2366 rocket 4.0 21:28:15 10° N 21:34:07 74° WNW 21:34:07 74° WNW
COSMOS 2455 3.3 21:34:30 10° NW 21:39:49 55° W 21:39:49 55° W
ERS-1 Rocket 4.1 21:47:39 40° NNW 21:47:39 40° NNW 21:50:52 10° NNW
Cosmos 1697 Rocket 4.2 22:14:09 10° NNW 22:17:11 32° N 22:17:11 32° N
CZ-4C R/B 3.8 22:16:02 10° NNW 22:22:18 39° NE 22:22:18 39° NE
Terra 4.2 22:33:55 19° NW 22:33:55 19° NW 22:35:26 10° NNW
Cosmos 1980 Rocket 4.1 22:42:33 10° NNW 22:44:56 25° N 22:44:56 25° N
Cosmos 2082 Rocket 4.5 23:15:18 19° NNE 23:15:18 19° NNE 23:16:49 10° NNE
Cosmos 2344 4.4 23:08:21 10° NNW 23:18:13 76° NE 23:18:38 75° ENE
